Flag for USA

Past Weather in Waterbury, Connecticut, USA — Yesterday and Last 2 Weeks

Now
66 °F

Sunny.


Feels Like: 66 °F
Forecast: 76 / 49 °F
Wind: 9 mph from Northwest

Location: Oxford
Current Time: Sep 23, 2020 at 11:36:45 am
Latest Report: Sep 23, 2020 at 10:51 am
Visibility: 10 mi
Pressure29.88 "Hg
Humidity: 59%
Dew Point: 51 °F
Location of WaterburyLocation

Past Weather in Waterbury — Graph

°F

Waterbury Temperature Yesterday

Maximum temperature yesterday: 67 °F (at 1:51 pm)
Minimum temperature yesterday: 37 °F (at 2:51 am)
Average temperature yesterday: 54 °F

High & Low Weather Summary for the Past Weeks

 TemperatureHumidityPressure
High82 °F (Sep 8, 3:51 pm)100% (Sep 8, 11:51 pm)30.64 "Hg (Sep 8, 11:51 pm)
Low37 °F (Sep 22, 2:51 am)27% (Sep 22, 4:51 pm)29.88 "Hg (Sep 23, 3:51 am)
Average61 °F75%30.25 "Hg
* Reported Sep 8 9:54 am — Sep 23 9:51 am, Waterbury. Weather by CustomWeather, © 2020

Note: Actual official high and low records may vary slightly from our data, if they occured in-between our weather recording intervals... More about our weather records

Waterbury Weather History for the Previous 24 Hours

Scroll right to see more
 ConditionsComfort  
Time TempWeatherWind HumidityBarometerVisibility
9:51 am
Wed, Sep 23
60 °FSunny.6 mph65%29.90 "Hg10 mi
8:51 am55 °FSunny.6 mph72%29.90 "Hg10 mi
7:51 am51 °FSunny.No wind80%29.91 "Hg10 mi
6:51 am49 °FSunny.3 mph84%29.90 "Hg10 mi
5:51 am50 °FClear.3 mph77%29.88 "Hg10 mi
4:51 am52 °FClear.5 mph75%29.88 "Hg10 mi
3:51 am52 °FClear.6 mph75%29.88 "Hg10 mi
2:51 am54 °FClear.9 mph67%29.89 "Hg10 mi
1:51 am54 °FClear.9 mph62%29.89 "Hg10 mi
12:51 am55 °FClear.10 mph57%29.89 "Hg10 mi
11:51 pm
Tue, Sep 22
56 °FClear.8 mph53%29.90 "Hg10 mi
10:51 pm57 °FClear.13 mph55%29.90 "Hg10 mi
9:51 pm57 °FClear.7 mph55%29.89 "Hg10 mi
8:51 pm58 °FClear.9 mph50%29.90 "Hg10 mi
7:51 pm58 °FClear.6 mph47%29.93 "Hg10 mi
6:51 pm60 °FClear.6 mph41%29.93 "Hg10 mi
5:51 pm63 °FSunny.12 mph30%29.93 "Hg10 mi
4:51 pm65 °FSunny.13 mph27%29.94 "Hg10 mi
3:51 pm65 °FSunny.12 mph33%29.96 "Hg10 mi
2:51 pm67 °FSunny.15 mph30%30.00 "Hg10 mi
1:51 pm67 °FSunny.13 mph29%30.03 "Hg10 mi
12:51 pm65 °FSunny.17 mph32%30.08 "Hg10 mi
11:51 am64 °FSunny.13 mph33%30.11 "Hg10 mi
Weather by CustomWeather, © 2020

See weather overview